Location: Beutels
(47.8767°N, 9.8584°E)
Time: 23:42:17
(UTC+00:00)

Cosmos 44 - Pass Details

Date: 19 May 2025
Orbit: 588 x 763 km, 65.1° (Epoch: 22 June)

Event Time Altitude Azimuth Distance (km) Brightness Sun altitude
Rises 19:35:38 0° 326° (NW) 2,886 8.3 -6.0°
Reaches altitude 10° 19:38:01 10° 335° (NNW) 2,000 6.9 -6.3°
Maximum altitude 19:42:12 36° 43° (NE) 1,014 4.2 -6.9°
Drops below altitude 10° 19:46:34 10° 111° (ESE) 2,088 5.2 -7.4°
Enters shadow 19:47:02 - 113° (ESE) 2,256 5.3 -7.5°
